Location: Fontevrault
(47.1823°N, 0.0493°E)
Time: 09:02:07
(UTC+00:00)

Cosmos 1725 Rocket - Pass Details

Date: 16 June 2021
Orbit: 962 x 990 km, 82.9° (Epoch: 03 August)

Event Time Altitude Azimuth Distance (km) Brightness Sun altitude
Rises 22:14:21 0° 349° (N) 3,661 8.6 -15.5°
Reaches altitude 10° 22:16:52 10° 348° (NNW) 2,709 7.6 -15.7°
Maximum altitude 22:23:02 72° 265° (W) 1,012 4.1 -16.1°
Enters shadow 22:27:20 21° 185° (S) 2,027 5.2 -16.4°
